User: anonymous   Login
Location: *
(33.6842°N, 117.7925°W)
Time: 10:24:25
(UTC+00:00)
Language:

USA 234 - Orbit

View from above orbital plane
View from above orbital plane
View from above satellite
View from above satellite

Ground track
Ground track

The orbit data is extracted from the following two-line orbital elements,

1 38109U 12014A   19343.21054082 0.00000000  00000-0  00000-0 0    04
2 38109 122.9957 283.7912 0005760  77.9597 282.0403 13.41425352    01
Epoch (UTC): 09 December 2019 05:03:10
Eccentricity: 0.0005760
inclination: 122.9957°
perigee height: 1099 km
apogee height: 1108 km
right ascension of ascending node: 283.7912°
argument of perigee: 77.9597°
revolutions per day: 13.41425352
mean anomaly at epoch: 282.0403°
orbit number at epoch: 0

The dashed part of the orbit path shows where the satellite is in the earth's shadow,  

DLR